Location: Arrien
(43.3167°N, 0.1500°W)
Time: 04:16:06
(UTC+00:00)

Cosmos 2344 - Pass Details

Date: 15 October 2021
Orbit: 1233 x 3009 km, 63.3° (Epoch: 08 December)

Event Time Altitude Azimuth Distance (km) Brightness Sun altitude
Rises 20:12:18 0° 323° (NW) 4,527 7.2 -32.2°
Reaches altitude 10° 20:14:55 10° 325° (NW) 3,684 6.6 -32.7°
Maximum altitude 20:24:11 77° 52° (NE) 1,921 4.2 -34.2°
Enters shadow 20:25:47 68° 107° (ESE) 2,067 4.2 -34.5°
